www.pogodaiklimat.ru

Погода и климат >> Архив погоды >> Азербайджан >> Шеки


АРХИВ ПОГОДЫ в Шеках

Время (UTC), дата Ветер
(напр.,м/с)
 
Видим.   Явления Облачность Т
(С)
Тd
(С)
f
(%)
Тe
(С)
Тes
(С)
Комфортность P
(гПа)
Po
(гПа)
Тmin
(С)
Tmax
(С)
R
(мм)
R24
(мм)
S
(см)
06 16.09 В 1 10 км 8/6 600 м
[Sc Ac und]
+18.6 +14.5 77 +20 +23 тепло 1021.7 948.6 +16.5
12 16.09 З 2 50 км 3/0
[Ci fib]
+24.5 +13.8 51 +27 +32 жарко 1015.3 944.3
18 16.09 СЗ 1 10 км 10/10 600 м
[Sc]
+21.0 +15.3 70 +25 +25 комфорт 1014.5 942.7 +24.8 0.0
00 17.09 штиль 0 50 км 3/0
[Ac und]
+18.7 +14.6 77 +19 +19 тепло 1012.5 940.3
06 17.09 ЮЗ 1 50 км ясно +21.4 +15.8 70 +25 +33 комфорт 1012.2 940.6 +16.3
12 17.09 СЗ 5 20 км ясно +28.8 +16.4 47 +32 +35 душно 1008.7 939.1
18 17.09 С 8 10 км гроза, ливневой дождь 10/10 600 м
[Cb cap]
+20.6 +14.7 69 +23 +23 комфорт 1011.6 939.9 +29.3 0.0
00 18.09 С 5 50 км ясно +19.6 +11.0 58 +21 +21 комфорт 1012.0 940.0
06 18.09 СЗ 2 50 км ясно +22.3 +11.4 50 +24 +31 комфорт 1015.0 943.4 +16.9 3
12 18.09 СЗ 3 50 км ясно +26.6 +11.1 38 +28 +32 жарко 1013.9 943.3
15 18.09 В 1 20 км ясно +23.8 +10.3 42 +25 +25 комфорт 1014.9 943.6
18 18.09 С 1 20 км ясно +18.2 +7.6 50 +19 +19 тепло 1017.0 944.2 +27.1
00 19.09 СЗ 1 20 км ясно +17.4 +5.9 47 +18 +18 тепло 1016.5 943.5
06 19.09 З 2 50 км ясно +22.1 +10.4 47 +24 +30 комфорт 1014.7 943.0 +14.5
12 19.09 С 3 50 км ясно +29.6 +12.5 35 +31 +35 жарко 1012.0 942.3
18 19.09 ЮВ 3 50 км ясно +23.0 +10.5 45 +25 +25 комфорт 1017.0 945.4 +29.9
00 20.09 В 1 50 км ясно +17.5 +9.0 57 +19 +19 тепло 1018.3 945.3
06 20.09 З 1 10 км 8/5 600 м
[Sc Ac und]
+19.6 +15.2 76 +23 +25 комфорт 1018.0 945.6 +17.0
09 20.09 ЮЗ 1 10 км 8/3 600 м
[Cu med, cong Ci fib]
+21.7 +11.5 52 +24 +32 комфорт 1013.3 951.3
12 20.09 Ю 2 10 км 8/5 600 м
[Sc Ac und]
+23.0 +15.1 61 +27 +29 душно 1012.7 941.3
18 20.09 СВ 1 20 км ясно +17.8 +14.1 79 +19 +19 тепло 1011.7 939.3 +24.9
00 21.09 СВ 2 50 км ясно +15.9 +10.9 72 +16 +16 тепло 1010.6 937.8
06 21.09 С 1 50 км ясно +21.1 +13.0 60 +23 +31 комфорт 1006.5 935.3 +15.3
12 21.09 С 4 50 км 5/3
[Cu med, cong Ac und]
+25.2 +10.7 40 +26 +28 жарко 1004.5 934.3
18 21.09 С 7 10 км 10/10 600 м
[Sc]
+17.6 +6.2 47 +17 +17 по сезону 1011.1 938.5 +25.7
00 22.09 В 1 10 км {дождь} 10/10 600 м
[Sc]
+12.0 +8.8 81 +12 +12 по сезону 1017.3 943.0
06 22.09 ЮЗ 2 50 км 5/0
[Ci fib]
+14.6 +8.9 69 +14 +20 прохладно 1022.2 948.2 +10.9 0.8
12 22.09 СЗ 6 50 км ясно +19.0 +3.6 36 +19 +21 прохладно 1020.8 947.8
15 22.09 СЗ 1 50 км ясно +16.7 +1.9 37 +18 +18 по сезону 1021.1 947.5
18 22.09 С 1 50 км ясно +13.0 -0.2 40 +14 +14 прохладно 1022.4 947.8 +19.8

 

Местоположение метеостанции Шеки (Азербайджан): широта 41.22 долгота 47.17 высота над уровнем моря 641 м.

В архиве по умолчанию представлена погода в Шеках за последнюю неделю. Архивные данные за месяц целиком и за предыдущие месяцы, начиная с января 2011 года, Вы можете получить, выбрав интересующий диапазон дат из раскрывающегося списка и нажав кнопку "Ввод!".


*Определитесь, кто Вы:
робот инопланетянин человек

Внимание! Время в таблицах - всемирное. Для получения местного времени необходимо прибавить поправку, которая равна 4 ч.

Смотрите также архив погоды в соседних городах и на ближайших метеорологических станциях:

Погода в Ахты (Дагестан, Россия) (56 км)
Погода в Габале (Азербайджан) (64 км)
Погода в Закатале (Азербайджан) (66 км)
Погода в Евлахе (Азербайджан) (67 км)
Погода в Геокчае (Азербайджан) (80 км)
Погода в Гяндже (Азербайджан) (84 км)
Погода в Барде (Азербайджан) (95 км)
Погода в Касумкенте (Дагестан, Россия) (96 км)
Погода в Кумухе (Дагестан, Россия) (100 км)
Погода в Губе (Азербайджан) (114 км)

Пояснения к столбцам:

Ветер - указаны скорость ветра в м/с - средняя за 10 мин, порывы в срок и между сроками (в фигурных скобках) и направление, откуда дует ветер: С - северный, СВ - северо-восточный, В - восточный, ЮВ - юго-восточный, Ю - южный, ЮЗ - юго-западный, З - западный, СЗ - северо-западный.
Видимость - горизонтальная дальность видимости в метрах или километрах. При видимости от 1 до 10 км при отсутствии осадков обычно наблюдается дымка, при ухудшении видимости до 1 км и менее - туман. В сухую погоду видимость может ухудшаться дымом, пылью или мглою.
Явления - указаны атмосферные явления, наблюдавшиеся в срок или в последний час перед сроком; фигурными скобками обозначены явления, наблюдавшиеся между сроками (за 1-3 часа до срока); квадратными скобками обозначены град или гололедные отложения с указанием их диаметра в мм.
Облачность - указаны через наклонную черту общая и нижняя облачность в баллах и высота нижней границы облаков в метрах; квадратными скобками обозначены формы облаков: Ci - перистые, Cs - перисто-слоистые, Cc - перисто-кучевые, Ac - высококучевые, As - высокослоистые, Sc - слоисто-кучевые, Ns - слоисто-дождевые, Cu - кучевые, Cb - кучево-дождевые. Подробнее классификацию облаков см. в Атласе облаков (PDF).
T - Температура воздуха - температура, измеренная на высоте 2 м над землей.
Td - Температура точки росы - температура, при понижении до которой содержащийся в воздухе водяной пар достигнет насыщения.
f - Относительная влажность воздуха - влажноcть воздуха, измеренная на высоте 2 м над землей.
Te - Эффективная температура - температура, которую ощущает одетый по сезону человек в тени. Характеристика душности погоды. При расчете учитывается влияние влажности воздуха и скорости ветра на теплоощущения человека.
Tes - Эффективная температура на солнце - температура, которую ощущает человек, с поправкой на солнечный нагрев. Характеристика знойности погоды. Зависит от высоты солнца над горизонтом, облачности и скорости ветра. Ночью, в пасмурную погоду, а также при ветре 12 м/с и более поправка равна нулю.
P - Атмосферное давление - приведенное к уровню моря атмосферное давление.
Po - Атмосферное давление - измеренное на уровне метеостанции атмосферное давление.
Tmin - Минимальная температура - минимум температуры воздуха на высоте 2 м над землей.
Tmax - Максимальная температура - максимум температуры воздуха на высоте 2 м над землей.
R - Количество осадков - Количество выпавших осадков за период времени, мм. При наведении курсора мыши на число - период времени, за который выпало указанное количество осадков.
R24 - Количество осадков - Количество выпавших осадков за 24 часа, мм.
S - Снежный покров - Высота снежного покрова, см. При наведении курсора мыши на число - состояние снежного покрова и степень покрытия местности в баллах.